Location: Invercargill
(46.4000°S, 168.3500°E)
Time: 19:06:50
(UTC+12:00)

Cosmos 1777 Rocket - Pass Details

Date: 14 May 2021
Orbit: 758 x 776 km, 74.0° (Epoch: 14 June)

Event Time Altitude Azimuth Distance (km) Brightness Sun altitude
Rises 18:43:52 0° 200° (SSW) 3,288 7.4 -13.6°
Reaches altitude 10° 18:46:19 10° 196° (SSW) 2,351 6.6 -14.0°
Maximum altitude 18:51:36 60° 116° (ESE) 892 4.0 -14.9°
Drops below altitude 10° 18:56:48 10° 35° (NE) 2,311 6.2 -15.8°
Sets 18:59:11 0° 31° (NNE) 3,227 7.0 -16.2°
